Weather History for KPHP - May, 2014

Change the Weather History Date:

Saturday, May 10, 2014

  Actual Average Record
Temperature  
Mean Temperature 55 °F 55 °F  
Max Temperature 67 °F 69 °F 93 °F (2012)
Min Temperature 42 °F 42 °F 24 °F (1990)
Degree Days  
Heating Degree Days 10 10  
Month to date heating degree days 150 118  
Since 1 July heating degree days 7312 6985  
Growing Degree Days 4 (Base 50)    
Moisture  
Dew Point 41 °F    
Average Humidity 63    
Maximum Humidity 89    
Minimum Humidity 37    
Precipitation  
Precipitation T in 0.10 in 1.28 in (1982)
Month to date precipitation 1.54 0.98  
Year to date precipitation 3.98 4.87  
Sea Level Pressure  
Sea Level Pressure 29.69 in    
Wind  
Wind Speed 15 mph (NW)    
Max Wind Speed 35 mph    
Max Gust Speed 41 mph    
Visibility 10 miles    
Events      
T = Trace of Precipitation, MM = Missing Value Source: NWS Daily Summary

Daily Weather History Graph

Daily Weather History Graph

Search for Another Location

Airport or City:

Trip Planner

Search our weather history database for the weather conditions in past years. The results will help you decide how hot, cold, wet, or windy it might be!

Date:

Astronomy

May. 10, 2014 Rise Set
Actual Time 5:25 AM MDT 8:00 PM MDT
Civil Twilight 4:53 AM MDT 8:33 PM MDT
Nautical Twilight 4:12 AM MDT 9:14 PM MDT
Astronomical Twilight 3:25 AM MDT 10:01 PM MDT
Moon 3:49 PM MDT (5/10) 3:09 AM MDT (5/10)
Length of Visible Light 15h 40m
Length of Day
14h 34m
Waxing Gibbous, 82% of the Moon is Illuminated
May 10
Waxing Gibbous
May 14
Full
May 21
Last Quarter
May 28
New
Jun 5
First Quarter

Hourly Weather History & Observations

Time (MDT) Temp. Windchill Dew Point Humidity Pressure Visibility Wind Dir Wind Speed Gust Speed Precip Events Conditions
12:55 AM 48.0 °F - 41.0 °F 77% 29.65 in 10.0 mi East 9.2 mph - N/A   Clear
1:55 AM 48.0 °F - 41.0 °F 77% 29.61 in 10.0 mi East 11.5 mph - 0.00 in   Overcast
2:55 AM 46.0 °F 41.9 °F 39.9 °F 79% 29.59 in 10.0 mi East 8.1 mph - N/A   Clear
3:55 AM 45.0 °F 41.2 °F 39.9 °F 82% 29.59 in 10.0 mi ENE 6.9 mph - N/A   Partly Cloudy
4:55 AM 44.1 °F 42.5 °F 39.0 °F 82% 29.59 in 10.0 mi NNE 3.5 mph - N/A   Clear
5:55 AM 43.0 °F 41.3 °F 39.9 °F 89% 29.62 in 10.0 mi WSW 3.5 mph - N/A   Clear
6:55 AM 46.9 °F - 41.0 °F 80% 29.65 in 10.0 mi West 10.4 mph - N/A   Clear
7:55 AM 51.1 °F - 42.1 °F 71% 29.66 in 10.0 mi WNW 15.0 mph - N/A   Clear
8:55 AM 55.0 °F - 39.9 °F 57% 29.66 in 10.0 mi WNW 31.1 mph 40.3 mph N/A   Clear
9:55 AM 57.9 °F - 41.0 °F 53% 29.67 in 10.0 mi WNW 26.5 mph 39.1 mph N/A   Clear
10:55 AM 61.0 °F - 42.1 °F 50% 29.68 in 10.0 mi WNW 29.9 mph 36.8 mph N/A   Mostly Cloudy
11:55 AM 63.0 °F - 41.0 °F 45% 29.67 in 10.0 mi WNW 23.0 mph 32.2 mph N/A   Partly Cloudy
12:55 PM 66.0 °F - 39.9 °F 38% 29.65 in 10.0 mi WNW 25.3 mph 33.4 mph N/A   Partly Cloudy
1:55 PM 66.0 °F - 41.0 °F 40% 29.65 in 10.0 mi NW 20.7 mph 35.7 mph N/A   Partly Cloudy
2:55 PM 64.9 °F - 42.1 °F 43% 29.67 in 10.0 mi NW 25.3 mph 32.2 mph N/A   Clear
3:55 PM 66.0 °F - 41.0 °F 40% 29.68 in 10.0 mi WNW 18.4 mph - N/A   Clear
4:55 PM 64.9 °F - 41.0 °F 42% 29.70 in 10.0 mi NW 21.9 mph 26.5 mph N/A   Clear
5:55 PM 64.0 °F - 42.1 °F 45% 29.72 in 10.0 mi NNW 16.1 mph - N/A   Partly Cloudy
6:55 PM 61.0 °F - 42.1 °F 50% 29.74 in 10.0 mi North 11.5 mph - N/A   Clear
7:55 PM 57.0 °F - 42.1 °F 57% 29.77 in 10.0 mi NNW 4.6 mph - N/A   Clear
8:55 PM 50.0 °F - 43.0 °F 77% 29.81 in 10.0 mi NNW 9.2 mph - N/A   Partly Cloudy
9:55 PM 51.1 °F - 39.9 °F 66% 29.83 in 10.0 mi NW 12.7 mph - N/A   Clear
10:55 PM 48.0 °F - 39.9 °F 74% 29.86 in 10.0 mi NW 11.5 mph - N/A   Clear
11:55 PM 44.1 °F 39.0 °F 39.0 °F 82% 29.90 in 10.0 mi WNW 9.2 mph - N/A   Clear